Jordan, MT

10:12 PM MDT on September 22, 2017 (GMT -0600)
Jordan

Weather History for KJDN - May, 2013

Change the Weather History Date:

Wednesday, May 29, 2013

  Actual Average Record
Temperature  
Mean Temperature 54 °F 57 °F  
Max Temperature 60 °F 70 °F 102 °F (1934)
Min Temperature 48 °F 43 °F 25 °F (1947)
Degree Days  
Heating Degree Days 11 8  
Month to date heating degree days 261 370  
Since 1 July heating degree days 7583 8104  
Cooling Degree Days 0 0  
Month to date cooling degree days 12 0  
Year to date cooling degree days 12 0  
Growing Degree Days 5 (Base 50)    
Moisture  
Dew Point 53 °F    
Average Humidity 89    
Maximum Humidity 100    
Minimum Humidity 78    
Precipitation  
Precipitation 2.05 in 0.12 in 2.05 in (2013)
Month to date precipitation 2.42 2.02  
Year to date precipitation 5.26 4.10  
Snow  
Snow 0.00 in - - ()
Month to date snowfall 0.0  
Since 1 July snowfall 0.0  
Snow Depth 0.00 in    
Sea Level Pressure  
Sea Level Pressure 29.65 in    
Wind  
Wind Speed 8 mph (NE)    
Max Wind Speed 15 mph    
Max Gust Speed 20 mph    
T = Trace of Precipitation, MM = Missing Value Source: NWS Daily Summary

Daily Weather History Graph

Daily Weather History Graph

Search for Another Location

Airport or City:

Trip Planner

Search our weather history database for the weather conditions in past years. The results will help you decide how hot, cold, wet, or windy it might be!

Date:

Astronomy

May. 29, 2013 Rise Set
Actual Time 5:17 AM MDT 8:53 PM MDT
Civil Twilight 4:38 AM MDT 9:32 PM MDT
Nautical Twilight 3:46 AM MDT 10:24 PM MDT
Astronomical Twilight 2:36 AM MDT 11:35 PM MDT
Moon 12:08 AM MDT (5/29) 10:31 AM MDT (5/29)
Length of Visible Light 16h 54m
Length of Day
15h 36m
Waning Gibbous, 72% of the Moon is Illuminated
May 29
Waning Gibbous
May 31
Last Quarter
Jun 8
New
Jun 16
First Quarter
Jun 23
Full

Hourly Weather History & Observations

Time (MDT) Temp. Dew Point Humidity Pressure Visibility Wind Dir Wind Speed Gust Speed Precip Events Conditions
12:48 AM 51.1 °F 50.0 °F 96% 29.70 in - Calm Calm - N/A   Unknown
1:48 AM 51.1 °F 48.9 °F 92% 29.69 in - West 4.6 mph - N/A   Unknown
2:48 AM 50.0 °F 48.9 °F 96% 29.67 in - West 4.6 mph - N/A   Unknown
3:48 AM 51.1 °F 48.9 °F 92% 29.66 in - Calm Calm - N/A   Unknown
4:48 AM 50.0 °F 48.9 °F 96% 29.68 in - Calm Calm - N/A   Unknown
5:48 AM 51.1 °F 48.9 °F 92% 29.68 in - Calm Calm - N/A   Unknown
6:48 AM 55.0 °F 53.1 °F 93% 29.66 in - Calm Calm - 0.01 in   Unknown
7:48 AM 57.9 °F 54.0 °F 87% 29.65 in - NE 3.5 mph - N/A   Unknown
8:48 AM 60.1 °F 54.0 °F 80% 29.65 in - NE 9.2 mph - N/A   Unknown
9:48 AM 60.1 °F 53.1 °F 78% 29.65 in - ENE 9.2 mph - N/A   Unknown
10:48 AM 57.0 °F 54.0 °F 89% 29.68 in - East 10.4 mph - 0.06 in   Unknown
12:48 PM 57.0 °F 54.0 °F 89% 29.68 in - East 12.7 mph - 0.01 in   Unknown
1:48 PM 55.9 °F 55.0 °F 97% 29.67 in - East 13.8 mph - 0.14 in   Unknown
2:48 PM 57.0 °F 54.0 °F 89% 29.66 in - ENE 11.5 mph - 0.09 in   Unknown
3:48 PM 55.9 °F 54.0 °F 93% 29.65 in - NE 10.4 mph - 0.06 in   Unknown
4:48 PM 55.0 °F 53.1 °F 93% 29.64 in - North 12.7 mph - 0.16 in   Unknown
5:48 PM 57.0 °F 54.0 °F 89% 29.62 in - NNE 11.5 mph - N/A   Unknown
6:48 PM 55.9 °F 53.1 °F 90% 29.62 in - NE 8.1 mph - N/A   Unknown
7:48 PM 55.0 °F 54.0 °F 96% 29.61 in - NE 11.5 mph - 0.25 in   Unknown
8:48 PM 55.9 °F 54.0 °F 93% 29.61 in - NNE 12.7 mph - 0.26 in   Unknown
9:48 PM 55.9 °F 54.0 °F 93% 29.62 in - North 11.5 mph - 0.19 in   Unknown
10:48 PM 55.9 °F 55.0 °F 97% 29.62 in - North 6.9 mph - 0.41 in   Unknown
11:48 PM 55.0 °F 54.0 °F 96% 29.61 in - North 8.1 mph - 0.20 in   Unknown